Location: Reutlingen
(48.4911°N, 9.2587°E)
Time: 10:29:51
(UTC+02:00)

ISS - Pass Details

Date: 07 January 2018
Orbit: 402 x 409 km, 51.6° (Epoch: 21 August)

Event Time Altitude Azimuth Distance (km) Brightness Sun altitude
Exits shadow 05:59:53 44° 27° (NNE) 599 -2.9 -21.3°
Drops below altitude 10° 06:02:46 10° 78° (ENE) 1,516 0.0 -20.8°
Sets 06:04:56 0° 84° (E) 2,384 1.4 -20.5°
